Regional Weather Roundup
Issued by NWS

Home | Current Version | Previous Version | Graphics & Text | Print | Product List | Glossary On
Versions: 1 2 3 4 5 6 7 8 9 10 11 12 13 14 15 16 17 18 19 20 21 22 23 24 25 26 27 28 29 30 31 32 33 34 35 36 37 38 39 40 41 42 43 44 45 46 47 48 49 50
000
ASUS43 KOAX 180302
RWRNE

WEATHER ROUNDUP FOR NEBRASKA
NATIONAL WEATHER SERVICE OMAHA NE
900 PM CST WED JAN 17 2018

NOTES: SATELLITE DATA IS BEING USED TO AUGMENT CLOUD COVER ABOVE
       12000 FEET.
       "FAIR" INDICATES FEW OR NO CLOUDS BELOW 12,000 FEET WITH NO
       SIGNIFICANT WEATHER AND/OR OBSTRUCTIONS TO VISIBILITY.


NEZ001>004-019>022-054>056-180400-
NEBRASKA PANHANDLE

CITY           SKY/WX    TMP DP  RH WIND       PRES   REMARKS
SCOTTSBLUFF    CLEAR     25  17  72 SE3       30.21F
ALLIANCE       CLEAR     16  14  92 W8        30.20F WCI   5
CHADRON        CLEAR     27  21  78 W8        30.16F WCI  19
GORDON         FAIR      23  17  80 SW7       30.15F WCI  14
KIMBALL        CLEAR     26  22  84 W3        30.23S
SIDNEY         CLEAR     19  15  84 W7        30.23S WCI  10
$$

NEZ057>060-069>072-079>082-180400-
SOUTHWEST NEBRASKA

CITY           SKY/WX    TMP DP  RH WIND       PRES   REMARKS
NORTH PLATTE   CLEAR     20  15  81 SE3       30.23F
IMPERIAL       CLEAR     25  18  74 W7        30.24F WCI  17
LEXINGTON      CLEAR     27  18  69 SW8       30.25F WCI  19
MCCOOK         CLEAR     28  18  66 SW7       30.25F WCI  21
OGALLALA       CLEAR     24  20  87 W5        30.23S WCI  18
$$

NEZ005>010-023>029-035>040-094-180400-
NORTH CENTRAL NEBRASKA

CITY           SKY/WX    TMP DP  RH WIND       PRES   REMARKS
VALENTINE      CLEAR     26  21  81 SW7       30.18F WCI  18
AINSWORTH      CLEAR     26  22  85 W6        30.18S WCI  19
BROKEN BOW     CLEAR     18  11  74 CALM      30.22F
O`NEILL        CLEAR     23  18  83 SW3       30.19F
ORD            CLEAR     25  18  74 SW12      30.21F WCI  14
THEDFORD       CLEAR     27  21  78 SW7       30.20F WCI  19
$$

NEZ041-046>049-061>064-073>077-083>087-180400-
SOUTH CENTRAL NEBRASKA

CITY           SKY/WX    TMP DP  RH WIND       PRES   REMARKS
GRAND ISLAND   CLOUDY    25  15  66 SW14      30.27F WCI  13
AURORA         CLOUDY    21  13  71 SW10      30.28F WCI  10
HASTINGS       CLOUDY    23  12  62 SW6       30.28F WCI  16
HEBRON         CLOUDY    22  14  70 S10       30.34F WCI  12
HOLDREGE       CLOUDY    23  15  71 SW5       30.27F WCI  17
KEARNEY        CLOUDY    23  14  68 SW15      30.26F WCI  10
YORK           CLOUDY    19  14  79 SW12      30.29F WCI   7
$$

NEZ011>018-030>034-042>045-180400-
NORTHEAST NEBRASKA

CITY           SKY/WX    TMP DP  RH WIND       PRES   REMARKS
NORFOLK        CLOUDY    24  16  71 SW17      30.21F WCI  11
ALBION         CLOUDY    24  16  71 CALM      30.24F
BLAIR          CLOUDY    21  13  70 S15       30.28F WCI   8
COLUMBUS       CLOUDY    23  15  71 SW7       30.28F WCI  15
FREMONT        CLOUDY    22  14  71 S8        30.29F WCI  12
TEKAMAH        CLOUDY    20  12  71 S13       30.29F WCI   7
WAYNE          CLOUDY    25  16  70 SW12      30.22F WCI  14
$$

NEZ050>053-065>068-078-088>093-180400-
SOUTHEAST NEBRASKA

CITY           SKY/WX    TMP DP  RH WIND       PRES   REMARKS
LINCOLN        CLOUDY    21  12  68 S8        30.34F WCI  11
OMAHA EPPLEY   CLOUDY    21  11  65 S9        30.33F WCI  11
BEATRICE       CLOUDY    20  13  73 S9        30.36F WCI  10
FALLS CITY     CLOUDY    20  11  68 S9        30.40F WCI   9
NEBRASKA CITY  CLOUDY    19  12  73 SW13      30.36S WCI   7
PLATTSMOUTH    CLOUDY    20  12  71 S14       30.33F WCI   7
$$

NEZ044-045-051>053-067-180400-
OMAHA AREA

CITY           SKY/WX    TMP DP  RH WIND       PRES   REMARKS
OMAHA EPPLEY   CLOUDY    21  11  65 S9        30.33F WCI  11
BLAIR          CLOUDY    21  13  70 S15       30.28F WCI   8
FREMONT        CLOUDY    22  14  71 S8        30.29F WCI  12
MILLARD        CLOUDY    22  12  64 S5        30.33F WCI  16
OFFUTT AFB     CLOUDY    19   9  67 S5        30.34F WCI  12
PLATTSMOUTH    CLOUDY    20  12  71 S14       30.33F WCI   7
WAHOO          FAIR      22  13  68 S9        30.31F WCI  12
$$




USA.gov is the U.S. government's official web portal to all federal, state and local government web resources and services.